User: anonymous   Login
Location: Pace/Milton
(30.6162°N, 87.1503°W)
Time: 20:03:31
(UTC-05:00)
Language:

ISS - Orbit

View from above orbital plane
View from above orbital plane
View from above satellite
View from above satellite

Ground track
Ground track

The orbit data is extracted from the following two-line orbital elements,

1 25544U 98067A   22220.86192788  .00004895  00000-0  92811-4 0  9998
2 25544  51.6444  75.6461 0005189  98.4492 276.7262 15.50274159353354
Epoch (UTC): 08 August 2022 20:41:10
Eccentricity: 0.0005189
inclination: 51.6444°
perigee height: 412 km
apogee height: 419 km
right ascension of ascending node: 75.6461°
argument of perigee: 98.4492°
revolutions per day: 15.50274159
mean anomaly at epoch: 276.7262°
orbit number at epoch: 35335

The dashed part of the orbit path shows where the satellite is in the earth's shadow,  

DLR